Погода в Олыке

Украина / Волынская область     50°43′14″N   25°49′00″E
темп.,
°C
ветер,
м/с
пор.,
м/с
влажн.,
%
обл.,
%
осадки,
мм/ч
давл.,
гПа
погр.,
м
17 апреля, сб
сб1700:00+3зюз4798100 0.3 1016228
03:00+3зюз3698100 0.4 1016195
06:00+3зюз3598100 0.7 1017218
09:00+3з4697100 0.9 1018259
12:00+4з4697100 0.1 1019334
15:00+5з4594100 0.1 1019410
18:00+6зюз238799 0.0 1019512
21:00+5зюз239067 0.0 102076
18 апреля, вс
вс1800:00+5з349166 0.0 102098
03:00+4з349256 0.0 102086
06:00+2зсз33945 0.0 101954
09:00+6зсз348189 0.0 1018292
12:00+11зсз346517 0.0 1017914
15:00+11с4571100 0.1 1017711
18:00+8ссв3689100 0.0 1017348
21:00+7всв5882100 0.0 1018488
19 апреля, пн
пн1900:00+4всв3788100 0.0 1019146
03:00+3всв338731 0.0 101846
06:00+2св3592100 0.0 1018104
09:00+6всв468322 0.0 1018382
12:00+10всв5663100 0.0 10171269
15:00+9всв5667100 0.1 10171003
18:00+8св4669100 0.0 1016413
21:00+7ссв4874100 0.0 1015294
20 апреля, вт
вт2000:00+6ссв3682100 0.0 1014188
03:00+5с3692100 0.1 1013190
06:00+5с4892100 0.1 1012305
09:00+6с4893100 0.4 1011592
12:00+7с5791100 0.6 1010764
15:00+8ссз587927 0.8 1009780
18:00+8с6880100 0.4 1009974
21:00+5ссз499418 0.4 1009343
21 апреля, ср
ср2100:00+6сз41087100 0.0 1009454
03:00+5зсз4990100 0.0 1010461
06:00+5з41091100 0.2 1010349
09:00+6з5979100 0.2 1012566
12:00+10зсз6857100 0.1 10121660
15:00+12з685392 0.3 10131732
18:00+11з576154 0.4 10141305
21:00+7зюз22805 0.8 101619